This is the latest recevied weather packets stored in our database for station/object CA3EVY-3. If no packets are shown the sender has not sent any weather packets the latest 10 day(s).
| Time | Temp. | Humidity | Pressure | Rain* | Wind** | Luminosity | Snow |
|---|---|---|---|---|---|---|---|
| 1777842004 | 22.22° C | 36% | 918.7 hPa | - | - | - | - |
| 1777841103 | 22.78° C | 36% | 918.7 hPa | - | - | - | - |
| 1777840203 | 23.33° C | 36% | 918.8 hPa | - | - | - | - |
| 1777839304 | 23.33° C | 36% | 918.4 hPa | - | - | - | - |
| 1777838404 | 23.33° C | 35% | 918.5 hPa | - | - | - | - |
| 1777837503 | 23.89° C | 35% | 918.5 hPa | - | - | - | - |
| 1777836604 | 24.44° C | 34% | 918.5 hPa | - | - | - | - |
| 1777835708 | 25° C | 34% | 918.6 hPa | - | - | - | - |
| 1777834804 | 25° C | 33% | 918.6 hPa | - | - | - | - |
| 1777833903 | 25° C | 33% | 918.6 hPa | - | - | - | - |
| 1777833003 | 24.44° C | 34% | 918.5 hPa | - | - | - | - |
| 1777832104 | 24.44° C | 34% | 918.4 hPa | - | - | - | - |
| 1777831209 | 23.89° C | 35% | 918.4 hPa | - | - | - | - |
| 1777830304 | 23.33° C | 35% | 918.3 hPa | - | - | - | - |
| 1777829404 | 22.78° C | 38% | 918.6 hPa | - | - | - | - |
| 1777828503 | 22.78° C | 38% | 918.9 hPa | - | - | - | - |
| 1777827604 | 21.67° C | 40% | 919.1 hPa | - | - | - | - |
| 1777826703 | 21.67° C | 40% | 919.2 hPa | - | - | - | - |
| 1777825804 | 20.56° C | 42% | 919.3 hPa | - | - | - | - |
| 1777824904 | 20° C | 42% | 919.4 hPa | - | - | - | - |
| 1777824004 | 19.44° C | 43% | 919.4 hPa | - | - | - | - |
| 1777823104 | 18.89° C | 43% | 919.4 hPa | - | - | - | - |
| 1777822204 | 18.33° C | 44% | 919.4 hPa | - | - | - | - |
| 1777821303 | 17.78° C | 44% | 919.6 hPa | - | - | - | - |
| 1777820403 | 17.22° C | 46% | 919.7 hPa | - | - | - | - |
* Rain since midnight (hover to see other rain measurements)
** Current wind speed in m/s (hover to see current wind gust speed)